Flag for Germany Weather past 2 weeks in Bornheim (Rheinland), North Rhine-Westphalia, Germany

Now
59 °F

Clear.


Feels Like: 58 °F
Forecast: 57 / 67 °F
Wind: 5 mph from Southeast

Location: Bonn-Hangelar

Current Time: Jul 7, 2015 at 4:42:41 AM

Latest Report: Jul 7, 2015 at 4:00 AM


Visibility: 31 mi

Pressure: 29.98 "Hg

Humidity: 81%

Dew point: 53 °F

Location of Bornheim (Rheinland)Location

Historic Weather in Bornheim (Rheinland) — Graph

°F

Bornheim (Rheinland) temperature yesterday

Maximum temperature yesterday: 75 °F (at 6:00 PM)
Minimum temperature yesterday: 55 °F (at 5:00 AM)
Average temperature yesterday: 66 °F

Past Weeks' High & Low Weather Summary

 TemperatureHumidityPressure
High94 °F (Jul 2, 4:00 PM)100% (Jun 22, 11:00 PM)30.26 "Hg (Jun 22, 11:00 PM)
Low47 °F (Jun 23, 1:00 AM)32% (Jun 30, 7:00 PM)29.72 "Hg (Jun 22, 8:00 PM)
Average67 °F70%30.08 "Hg
* Reported Jun 22 3:00 AM — Jul 7 3:00 AM, Bornheim (Rheinland), Weather by CustomWeather, © 2015

Note: Actual official high and low records may vary slightly from our data, if they occured in-between our weather recording intervals... More about our weather records

Advertising

Bornheim (Rheinland) weather history for previous 24 hours

 ConditionsComfort  
Time TempWeatherWind HumidityBarometerVisibility
3:00 AM
Tue, Jul 7
60 °FClear.5 mph79%30.01 "Hg28 mi
2:00 AM60 °FClear.5 mph80%30.02 "Hg28 mi
1:00 AM60 °FClear.3 mph82%30.05 "Hg25 mi
12:00 AM60 °FClear.3 mph83%30.06 "Hg28 mi
11:00 PM
Mon, Jul 6
64 °FClear.2 mph72%30.06 "Hg34 mi
10:00 PM69 °FClear.1 mph55%30.06 "Hg43 mi
9:00 PM73 °FSunny.1 mph52%30.06 "Hg43 mi
8:00 PM74 °FSunny.2 mph47%30.07 "Hg43 mi
7:00 PM74 °FSunny.3 mph46%30.09 "Hg19 mi
6:00 PM75 °FSunny.3 mph45%30.10 "Hg31 mi
5:00 PM74 °FPassing clouds.3 mph43%30.12 "Hg28 mi
4:00 PM74 °FPassing clouds.5 mph48%30.14 "Hg28 mi
3:00 PM74 °FScattered clouds.3 mph51%30.15 "Hg28 mi
2:00 PM71 °FPassing clouds.5 mph50%30.16 "Hg25 mi
1:00 PM71 °FPassing clouds.5 mph52%30.17 "Hg25 mi
12:00 PM67 °FPassing clouds.5 mph58%30.18 "Hg25 mi
11:00 AM66 °FSunny.6 mph64%30.19 "Hg25 mi
10:00 AM63 °FSunny.6 mph70%30.20 "Hg25 mi
9:00 AM60 °FSunny.5 mph76%30.20 "Hg25 mi
8:00 AM58 °FPassing clouds.5 mph87%30.19 "Hg25 mi
7:00 AM55 °FPassing clouds.5 mph92%30.19 "Hg19 mi
5:00 AM55 °FClear.3 mph91%30.17 "Hg19 mi
4:00 AM56 °FClear.3 mph94%30.16 "Hg16 mi
Weather by CustomWeather, © 2015

See weather overviewHow to use our weather pages